Le nostre stazioni meteo in Italia

Pubblicità
Il mio iltempo24.it
Roma Fiumicino, Italia (16242): Temperatura & dewpoint: 21.02.2020 14:00:00 - 27.02.2020 14:00:00 (CET)Roma Fiumicino, Italia (16242): velocità del vento: 21.02.2020 14:00:00 - 27.02.2020 14:00:00 (CET)Roma Fiumicino, Italia (16242): direzione del vento: 21.02.2020 14:00:00 - 27.02.2020 14:00:00 (CET)Roma Fiumicino, Italia (16242): reduced air pressure: 21.02.2020 14:00:00 - 27.02.2020 14:00:00 (CET)Roma Fiumicino, Italia (16242): visibility: 21.02.2020 14:00:00 - 27.02.2020 14:00:00 (CET)Roma Fiumicino, Italia (16242): precipitazioni: 21.02.2020 14:00:00 - 27.02.2020 14:00:00 (CET)
Data & Tempo tt [°C] td [°C] ff [km/h] ff [kn] dd ppp [hPa] vv [km] rr [mm]
27.02.2020 14:00:00 13,0 0,0 16 9 SO - 10 -
27.02.2020 13:00:00 13,4 -2,7 13 7 OSO 1015,3 30 -
27.02.2020 12:00:00 12,0 -3,0 5 3 SSO - 10 -
27.02.2020 11:00:00 11,0 -1,0 8 4 SE - 10 -
27.02.2020 10:00:00 8,9 -0,2 11 6 ENE 1015,2 10 0,0
27.02.2020 09:00:00 7,0 0,0 5 3 ESE - 10 -
27.02.2020 08:00:00 3,0 -1,0 5 3 ENE - 10 -
27.02.2020 07:00:00 2,5 -1,8 9 5 NNE 1013,0 10 -
27.02.2020 06:00:00 3,0 -2,0 5 3 N - 10 -
27.02.2020 05:00:00 5,0 -3,0 15 8 NNO - 10 -
27.02.2020 04:00:00 6,0 -3,6 15 8 NNO 1010,5 10 0,0
27.02.2020 03:00:00 8,0 -3,0 26 14 NNO - 10 -
27.02.2020 02:00:00 9,0 -4,0 31 17 NNO - 10 -
27.02.2020 01:00:00 8,1 -1,0 26 14 NNO 1007,8 10 -
27.02.2020 00:00:00 6,0 1,0 8 4 NNO - 10 -
26.02.2020 23:00:00 7,0 2,0 8 4 N - 10 -
26.02.2020 22:00:00 9,2 -0,5 39 21 ONO 1005,9 10 0,0
26.02.2020 21:00:00 8,0 1,0 28 15 N - 10 -
26.02.2020 20:00:00 8,0 2,0 11 6 NO - 10 -
26.02.2020 19:00:00 8,5 2,7 44 24 NO 1004,5 7 -
26.02.2020 18:00:00 14,0 5,0 39 21 O - 10 -
26.02.2020 17:00:00 15,0 6,0 29 16 O - 10 -
26.02.2020 16:00:00 15,7 7,9 24 13 O 1002,7 10 0,0
26.02.2020 15:00:00 16,0 5,0 15 8 O - 10 -
26.02.2020 14:00:00 15,0 5,0 22 12 O - 10 -
26.02.2020 13:00:00 16,0 3,6 21 11 ONO 1004,0 10 -
26.02.2020 12:00:00 15,0 12,0 18 10 O - 10 -
26.02.2020 11:00:00 - - - - - - - -
26.02.2020 10:00:00 14,7 9,0 13 7 OSO 1005,0 10 0,0
26.02.2020 09:00:00 14,0 10,0 11 6 O - 10 -
26.02.2020 08:00:00 14,0 11,0 11 6 SSO - 8 -
26.02.2020 07:00:00 12,9 10,1 11 6 SSO 1004,9 10 -
26.02.2020 06:00:00 14,0 10,0 16 9 SO - 10 -
26.02.2020 05:00:00 14,0 11,0 18 10 SO - 10 -
26.02.2020 04:00:00 13,8 10,8 15 8 SSO 1006,5 10 0,0
26.02.2020 03:00:00 12,0 10,0 18 10 SSE - 10 -
26.02.2020 02:00:00 12,0 10,0 16 9 SSE - 10 -
26.02.2020 01:00:00 12,2 9,6 15 8 SSE 1008,5 10 -
26.02.2020 00:00:00 12,0 10,0 16 9 SSE - 10 -
25.02.2020 23:00:00 12,0 10,0 18 10 SE - 10 -
25.02.2020 22:00:00 12,0 9,8 24 13 SE 1010,3 10 0,0
25.02.2020 21:00:00 12,0 10,0 18 10 SSE - 10 -
25.02.2020 20:00:00 13,0 10,0 18 10 SSE - 10 -
25.02.2020 19:00:00 13,0 10,4 16 9 SSE 1011,7 10 -
25.02.2020 18:00:00 14,0 11,0 22 12 SSE - 10 -
25.02.2020 17:00:00 15,0 11,0 18 10 S - 10 -
25.02.2020 16:00:00 15,3 9,9 28 15 SSE 1012,6 10 0,0
25.02.2020 15:00:00 16,0 10,0 18 10 S - 10 -
25.02.2020 14:00:00 15,0 11,0 22 12 S - 10 -
25.02.2020 13:00:00 15,6 10,2 22 12 SSE 1014,9 10 -
25.02.2020 12:00:00 16,0 10,0 18 10 S - 10 -
25.02.2020 11:00:00 15,0 11,0 22 12 SSE - 10 -
25.02.2020 10:00:00 14,9 10,9 16 9 SSE 1017,1 10 0,0
25.02.2020 09:00:00 13,0 11,0 16 9 SE - 10 -
25.02.2020 08:00:00 12,0 11,0 13 7 SE - 10 -
25.02.2020 07:00:00 11,6 10,1 13 7 SE 1017,4 10 -
25.02.2020 06:00:00 10,0 10,0 8 4 ESE - 9 -
25.02.2020 05:00:00 10,0 9,0 9 5 ESE - 9 -
25.02.2020 04:00:00 9,9 9,5 8 4 ESE 1018,1 10 0,0
25.02.2020 03:00:00 11,0 10,0 9 5 ESE - 10 -
25.02.2020 02:00:00 13,0 11,0 9 5 SE - 10 -
25.02.2020 01:00:00 13,2 11,4 9 5 SE 1020,1 10 -
25.02.2020 00:00:00 14,0 11,0 5 3 S - 10 -
24.02.2020 23:00:00 14,0 11,0 9 5 SSO - 10 -
24.02.2020 22:00:00 14,0 11,3 9 5 SSE 1020,7 10 0,0
24.02.2020 21:00:00 13,0 11,0 8 4 SSE - 10 -
24.02.2020 20:00:00 13,0 11,0 11 6 SSO - 10 -
24.02.2020 19:00:00 13,3 11,0 8 4 S 1020,7 10 -
24.02.2020 18:00:00 14,0 10,0 5 3 S - 10 -
24.02.2020 17:00:00 15,0 11,0 11 6 SSO - 10 -
24.02.2020 16:00:00 15,2 10,3 13 7 SO 1020,8 10 0,0
24.02.2020 15:00:00 16,0 11,0 15 8 OSO - 10 -
24.02.2020 14:00:00 16,0 10,0 18 10 OSO - 10 -
24.02.2020 13:00:00 15,8 9,9 13 7 OSO 1022,0 10 -
24.02.2020 12:00:00 16,0 10,0 5 3 ENE - 10 -
24.02.2020 11:00:00 15,0 9,0 9 5 E - 10 -
24.02.2020 10:00:00 13,7 9,1 15 8 ENE 1023,5 10 0,0
24.02.2020 09:00:00 12,0 9,0 13 7 ENE - 10 -
24.02.2020 08:00:00 10,0 9,0 9 5 E - 10 -
24.02.2020 07:00:00 9,5 8,2 8 4 E 1023,4 10 -
24.02.2020 06:00:00 10,0 10,0 4 2 E - 10 -
24.02.2020 05:00:00 11,0 10,0 4 2 - - 10 -
24.02.2020 04:00:00 10,5 9,7 5 3 N 1024,1 10 0,0
24.02.2020 03:00:00 11,0 10,0 4 2 - - 10 -
24.02.2020 02:00:00 10,0 10,0 5 3 N - 10 -
24.02.2020 01:00:00 10,6 9,8 2 1 - 1025,7 10 -
24.02.2020 00:00:00 11,0 10,0 8 4 ENE - 10 -
23.02.2020 23:00:00 10,0 10,0 11 6 ENE - 10 -
23.02.2020 22:00:00 10,6 9,4 9 5 E 1026,8 10 0,0
23.02.2020 21:00:00 13,0 10,0 5 3 SSE - 10 -
23.02.2020 20:00:00 12,0 10,0 9 5 OSO - 10 -
23.02.2020 19:00:00 13,1 10,2 15 8 SO 1028,0 10 -
23.02.2020 18:00:00 13,0 10,0 15 8 SO - 10 -
23.02.2020 17:00:00 14,0 10,0 11 6 OSO - 10 -
23.02.2020 16:00:00 14,3 9,3 16 9 OSO 1028,3 10 0,0
23.02.2020 15:00:00 15,0 10,0 18 10 O - 10 -
23.02.2020 14:00:00 15,0 10,0 16 9 O - 10 -
23.02.2020 13:00:00 14,6 9,9 13 7 ONO 1030,5 10 -
23.02.2020 12:00:00 14,0 10,0 13 7 O - 10 -
23.02.2020 11:00:00 13,0 10,0 4 2 - - 9 -
23.02.2020 10:00:00 10,9 8,3 4 2 - 1032,0 7 0,0
23.02.2020 09:00:00 8,0 7,0 5 3 E - 5 -
23.02.2020 08:00:00 4,0 4,0 4 2 - - 5 -
23.02.2020 07:00:00 3,8 3,8 5 3 ESE 1030,8 6 -
23.02.2020 06:00:00 4,0 4,0 4 2 ESE - 6 -
23.02.2020 05:00:00 3,0 3,0 4 2 NNO - 6 -
23.02.2020 04:00:00 4,4 4,3 4 2 ENE 1030,9 9 0,0
23.02.2020 03:00:00 6,0 6,0 4 2 ESE - 7 -
23.02.2020 02:00:00 5,0 5,0 5 3 NE - 8 -
23.02.2020 01:00:00 6,4 6,3 4 2 - 1032,4 8 -
23.02.2020 00:00:00 6,0 6,0 5 3 NNO - 9 -
22.02.2020 23:00:00 6,0 6,0 5 3 N - 5 -
22.02.2020 22:00:00 8,2 7,8 2 1 - 1032,2 10 0,0
22.02.2020 21:00:00 11,0 9,0 8 4 ONO - 10 -
22.02.2020 20:00:00 12,0 10,0 9 5 ONO - 10 -
22.02.2020 19:00:00 11,9 10,2 8 4 ONO 1031,6 10 -
22.02.2020 18:00:00 13,0 10,0 9 5 ONO - 10 -
22.02.2020 17:00:00 14,0 10,0 16 9 O - 10 -
22.02.2020 16:00:00 14,8 7,6 16 9 O 1030,7 10 0,0
22.02.2020 15:00:00 15,0 7,0 13 7 OSO - 10 -
22.02.2020 14:00:00 15,0 6,0 15 8 OSO - 10 -
22.02.2020 13:00:00 15,9 6,1 9 5 SSO 1031,9 10 -
22.02.2020 12:00:00 16,0 5,0 8 4 SSO - 10 -
22.02.2020 11:00:00 14,0 6,0 9 5 E - 10 -
22.02.2020 10:00:00 11,8 5,2 11 6 E 1031,3 10 0,0
22.02.2020 09:00:00 8,0 5,0 8 4 E - 10 -
22.02.2020 08:00:00 4,0 3,0 8 4 E - 10 -
22.02.2020 07:00:00 4,3 2,9 8 4 E 1028,9 10 -
22.02.2020 06:00:00 5,0 4,0 5 3 NE - 10 -
22.02.2020 05:00:00 4,0 4,0 8 4 E - 10 -
22.02.2020 04:00:00 4,0 3,9 5 3 NE 1027,7 10 0,0
22.02.2020 03:00:00 4,0 3,0 4 2 N - 10 -
22.02.2020 02:00:00 6,0 5,0 5 3 E - 10 -
22.02.2020 01:00:00 4,0 3,7 8 4 NNE 1026,6 10 -
22.02.2020 00:00:00 6,0 5,0 8 4 ENE - 10 -
21.02.2020 23:00:00 5,0 4,0 5 3 ENE - 10 -
21.02.2020 22:00:00 - - - - - - - -
21.02.2020 21:00:00 - - - - - - - -
21.02.2020 20:00:00 10,0 8,0 8 4 NO - 10 -
21.02.2020 19:00:00 11,3 8,3 8 4 ONO 1024,7 10 -
21.02.2020 18:00:00 13,0 8,0 9 5 O - 10 -
21.02.2020 17:00:00 14,0 8,0 13 7 O - 10 -
21.02.2020 16:00:00 14,3 7,6 15 8 O 1023,5 10 0,0
21.02.2020 15:00:00 15,0 6,0 13 7 O - 10 -
21.02.2020 14:00:00 16,0 6,0 13 7 ONO - 10 -

tt = Temperatura
td = dewpoint
ff = velocità del vento
dd = direzione del vento
ppp = reduced air pressure
vv = visibility
rr = precipitazioni

Stazioni seguenti

WeatherPro
AMSI
MeteoEarth